This is the latest recevied weather packets stored in our database for station/object KE9ADS. If no packets are shown the sender has not sent any weather packets the latest 1 day(s).
| Time | Temp. | Humidity | Pressure | Rain* | Wind** | Luminosity | Snow |
|---|---|---|---|---|---|---|---|
| 1778025080 | 12.78° C | 42% | 1012.1 hPa | 0 mm | 0.89 m/s, 236° | 52 W/m² | - |
| 1778024479 | 12.78° C | 43% | 1012.1 hPa | 0 mm | 0 m/s | 52 W/m² | - |
| 1778023874 | 12.78° C | 43% | 1012.1 hPa | 0 mm | 0.89 m/s, 256° | 54 W/m² | - |
| 1778023274 | 12.78° C | 42% | 1012.2 hPa | 0 mm | 0.45 m/s, 237° | 63 W/m² | - |
| 1778022670 | 12.78° C | 41% | 1011.9 hPa | 0 mm | 0 m/s | 48 W/m² | - |
| 1778022069 | 12.78° C | 41% | 1012.4 hPa | 0 mm | 0.89 m/s, 238° | 72 W/m² | - |
| 1778021468 | 13.33° C | 44% | 1012.5 hPa | 0 mm | 0 m/s | 69 W/m² | - |
| 1778020868 | 13.33° C | 40% | 1012.6 hPa | 0 mm | 1.79 m/s, 289° | 104 W/m² | - |
| 1778020267 | 13.33° C | 39% | 1012.5 hPa | 0 mm | 0.89 m/s, 248° | 113 W/m² | - |
| 1778019665 | 12.78° C | 40% | 1012.8 hPa | 0 mm | 0.89 m/s, 253° | 94 W/m² | - |
| 1778019064 | 13.33° C | 40% | 1012.6 hPa | 0 mm | 0.89 m/s, 269° | 93 W/m² | - |
| 1778018460 | 13.33° C | 40% | 1012.7 hPa | 0 mm | 0 m/s | 121 W/m² | - |
| 1778017855 | 13.33° C | 37% | 1012.7 hPa | 0 mm | 0 m/s | 144 W/m² | - |
| 1778017255 | 13.33° C | 37% | 1013 hPa | 0 mm | 0.89 m/s, 265° | 191 W/m² | - |
| 1778016655 | 13.33° C | 38% | 1012.9 hPa | 0 mm | 0.45 m/s, 261° | 191 W/m² | - |
| 1778016065 | 13.33° C | 39% | 1012.8 hPa | 0 mm | 0.45 m/s, 277° | 166 W/m² | - |
| 1778015455 | 13.33° C | 40% | 1013 hPa | 0 mm | 0.89 m/s, 293° | 168 W/m² | - |
| 1778014855 | 13.33° C | 38% | 1013 hPa | 0 mm | 1.79 m/s, 263° | 145 W/m² | - |
| 1778014249 | 13.33° C | 37% | 1013.1 hPa | 0 mm | 0.45 m/s, 209° | 189 W/m² | - |
| 1778013644 | 13.33° C | 38% | 1013.4 hPa | 0 mm | 0.45 m/s, 268° | 205 W/m² | - |
| 1778013043 | 13.33° C | 37% | 1013.5 hPa | 0 mm | 0.45 m/s, 211° | 184 W/m² | - |
| 1778012441 | 13.33° C | 36% | 1013.6 hPa | 0 mm | 0.45 m/s, 242° | 180 W/m² | - |
| 1778011836 | 13.33° C | 37% | 1013.4 hPa | 0 mm | 0.45 m/s, 243° | 180 W/m² | - |
| 1778011230 | 13.33° C | 40% | 1013.4 hPa | 0 mm | 0.45 m/s, 243° | 194 W/m² | - |
| 1778010629 | 13.33° C | 39% | 1013.6 hPa | 0 mm | 0.89 m/s, 239° | 176 W/m² | - |
* Rain latest hour (hover to see other rain measurements)
** Current wind speed in m/s (hover to see current wind gust speed)